Flag for Colombia Weather past 2 weeks in Cartagena, Colombia

Now
90 °F

Sunny.


Feels Like: 105 °F
Forecast: 80 / 89 °F
Wind: 5 mph from South

Location: Cartagena / Rafael Nunez

Current Time: Jul 31, 2015 at 10:58:26 AM

Latest Report: Jul 31, 2015 at 10:00 AM


Visibility: 10 mi

Pressure: 29.83 "Hg

Humidity: 71%

Dew point: 79 °F

Location of CartagenaLocation

Historic Weather in Cartagena — Graph

°F

Cartagena temperature yesterday

Maximum temperature yesterday: 90 °F (at 1:00 PM)
Minimum temperature yesterday: 81 °F (at 2:00 AM)
Average temperature yesterday: 84 °F

Past Weeks' High & Low Weather Summary

 TemperatureHumidityPressure
High93 °F (Jul 27, 11:00 AM)100% (Jul 19, 5:00 AM)29.92 "Hg (Jul 19, 5:00 AM)
Low36 °F (Jul 19, 5:00 AM)59% (Jul 26, 4:00 PM)29.67 "Hg (Jul 26, 4:00 PM)
Average84 °F84%29.81 "Hg
* Reported Jul 16 9:00 AM — Jul 31 9:00 AM, Cartagena, Weather by CustomWeather, © 2015

Note: Actual official high and low records may vary slightly from our data, if they occured in-between our weather recording intervals... More about our weather records

Advertising

Cartagena weather history for previous 24 hours

 ConditionsComfort  
Time TempWeatherWind HumidityBarometerVisibility
9:00 AM
Fri, Jul 31
88 °FSunny.5 mph70%29.83 "Hg10 mi
8:00 AM84 °FSunny.5 mph79%29.84 "Hg10 mi
7:00 AM81 °FSunny.No wind94%29.81 "Hg10 mi
6:00 AM79 °FSunny.No wind94%29.86 "Hg10 mi
5:00 AM79 °FClear.No wind94%29.80 "Hg10 mi
4:00 AM79 °FClear.No wind94%29.79 "Hg10 mi
3:00 AM79 °FWarm.N/A94%29.79 "HgN/A
2:00 AM81 °FClear.5 mph89%29.81 "HgN/A
1:00 AM81 °FWarm.8 mph89%29.83 "Hg5 mi
12:00 AM81 °FPassing clouds.5 mph89%29.84 "HgN/A
11:00 PM
Thu, Jul 30
81 °FPassing clouds.9 mph84%29.85 "HgN/A
10:00 PM82 °FPassing clouds.9 mph84%29.86 "HgN/A
9:00 PM82 °FPassing clouds.8 mph84%29.84 "HgN/A
8:00 PM82 °FPassing clouds.6 mph84%29.82 "HgN/A
7:00 PM82 °FWarm.N/A89%29.79 "HgN/A
6:00 PM86 °FScattered clouds.14 mph75%29.79 "HgN/A
5:00 PM88 °FScattered clouds.12 mph70%29.77 "HgN/A
4:00 PM88 °FScattered clouds.16 mph70%29.78 "HgN/A
3:00 PM90 °FScattered clouds.16 mph67%29.78 "HgN/A
2:00 PM88 °FScattered clouds.12 mph75%29.79 "HgN/A
1:00 PM90 °FScattered clouds.16 mph71%29.80 "HgN/A
12:00 PM88 °FPassing clouds.14 mph75%29.82 "HgN/A
11:00 AM88 °FPassing clouds.13 mph75%29.83 "HgN/A
10:00 AM88 °FPassing clouds.2 mph70%29.85 "Hg6 mi
Weather by CustomWeather, © 2015

See weather overviewHow to use our weather pages